Jackson, MI

8:17 AM EDT on September 21, 2019 (GMT -0400)
Jackson County-Reynolds

Weather History for KJXN - May, 2019

Change the Weather History Date:

Friday, May 24, 2019

  Actual Average Record
Temperature  
Mean Temperature 57 °F 60 °F  
Max Temperature 66 °F 72 °F 91 °F (1977)
Min Temperature 47 °F 49 °F 34 °F (1992)
Degree Days  
Heating Degree Days 8 6  
Month to date heating degree days 233 221  
Since 1 July heating degree days 6630 6567  
Cooling Degree Days 0 2  
Month to date cooling degree days 1 18  
Year to date cooling degree days 1 24  
Growing Degree Days 7 (Base 50)    
Moisture  
Dew Point 53 °F    
Average Humidity 84    
Maximum Humidity 100    
Minimum Humidity 67    
Precipitation  
Precipitation 0.03 in 0.11 in 0.87 in (1952)
Month to date precipitation 2.73 2.54  
Year to date precipitation 10.97 9.83  
Sea Level Pressure  
Sea Level Pressure 30.11 in    
Wind  
Wind Speed 5 mph (ESE)    
Max Wind Speed 14 mph    
Max Gust Speed 20 mph    
Visibility 10 miles    
Events Rain    
T = Trace of Precipitation, MM = Missing Value Source: NWS Daily Summary

Daily Weather History Graph

Daily Weather History Graph

Search for Another Location

Airport or City:

Astronomy

May. 24, 2019 Rise Set
Actual Time 6:08 AM EDT 9:00 PM EDT
Civil Twilight 5:35 AM EDT 9:34 PM EDT
Nautical Twilight 4:54 AM EDT 10:16 PM EDT
Astronomical Twilight 4:05 AM EDT 11:04 PM EDT
Moon 1:24 AM EDT (5/24) 11:09 AM EDT (5/24)
Length of Visible Light 15h 58m
Length of Day
14h 51m
Waning Gibbous, 69% of the Moon is Illuminated
May 24
Waning Gibbous
May 26
Last Quarter
Jun 3
New
Jun 10
First Quarter
Jun 17
Full

Hourly Weather History & Observations

Time (EDT) Temp. Dew Point Humidity Pressure Visibility Wind Dir Wind Speed Gust Speed Precip Events Conditions
12:56 AM 57.0 °F 50.0 °F 77% 30.09 in 10.0 mi Calm Calm - N/A   Clear
1:56 AM 52.0 °F 48.9 °F 89% 30.08 in 10.0 mi Calm Calm - N/A   Clear
2:56 AM 51.1 °F 50.0 °F 96% 30.08 in 10.0 mi Calm Calm - N/A   Clear
3:56 AM 48.9 °F 48.9 °F 100% 30.09 in 10.0 mi Calm Calm - N/A   Clear
4:56 AM 48.9 °F 48.0 °F 97% 30.10 in 10.0 mi SW 3.5 mph - N/A   Clear
5:56 AM 48.9 °F 48.0 °F 97% 30.13 in 10.0 mi SW 3.5 mph - N/A   Clear
6:56 AM 50.0 °F 48.9 °F 96% 30.14 in 10.0 mi Calm Calm - N/A   Clear
7:56 AM 55.9 °F 50.0 °F 80% 30.15 in 10.0 mi Calm Calm - N/A   Clear
8:56 AM 59.0 °F 50.0 °F 72% 30.19 in 10.0 mi Variable 4.6 mph - N/A   Partly Cloudy
9:56 AM 57.0 °F 52.0 °F 83% 30.21 in 9.0 mi Calm Calm - 0.00 in Rain Light Rain
10:56 AM 57.0 °F 54.0 °F 89% 30.15 in 10.0 mi ENE 3.5 mph - 0.03 in Rain Light Rain
11:56 AM 60.1 °F 55.0 °F 83% 30.13 in 10.0 mi SSE 6.9 mph - 0.00 in   Partly Cloudy
12:56 PM 64.0 °F 54.0 °F 70% 30.15 in 10.0 mi Calm Calm - N/A   Scattered Clouds
1:56 PM 64.9 °F 54.0 °F 68% 30.16 in 10.0 mi Calm Calm - N/A   Overcast
2:56 PM 64.0 °F 57.0 °F 78% 30.17 in 10.0 mi NNE 5.8 mph - N/A   Overcast
3:56 PM 64.0 °F 55.0 °F 73% 30.19 in 10.0 mi NNW 3.5 mph - N/A   Overcast
4:56 PM 66.0 °F 55.0 °F 68% 30.11 in 10.0 mi SE 11.5 mph 17.3 mph N/A   Clear
5:56 PM 64.9 °F 55.0 °F 70% 30.08 in 10.0 mi ESE 8.1 mph - N/A   Overcast
6:56 PM 66.0 °F 55.9 °F 70% 30.06 in 10.0 mi SE 9.2 mph - N/A   Overcast
7:56 PM 64.9 °F 55.9 °F 73% 30.06 in 10.0 mi East 5.8 mph - N/A   Clear
8:34 PM 64.0 °F 55.9 °F 75% 30.06 in 10.0 mi East 8.1 mph - N/A   Overcast
8:56 PM 63.0 °F 55.9 °F 78% 30.06 in 10.0 mi East 6.9 mph - N/A   Scattered Clouds
9:56 PM 63.0 °F 55.9 °F 78% 30.06 in 10.0 mi East 8.1 mph - N/A   Clear
10:56 PM 62.1 °F 54.0 °F 75% 30.05 in 10.0 mi East 10.4 mph - N/A   Scattered Clouds
11:56 PM 61.0 °F 52.0 °F 72% 30.03 in 10.0 mi ESE 10.4 mph 17.3 mph N/A   Overcast